Hourly Data Report for October 26, 2013

All times are specified in Local Standard Time (LST). Add 1 hour to adjust for Daylight Saving Time where and when it is observed.

RANKIN INLET A
NUNAVUT

62°48'38.000" N
92°06'53.000" W
32.30 m
2303405
71083
YRT

Download Data

Hourly Data (October 2013)
Hourly Data Report for October 26, 2013
Temp Definition
°C
Dew Point Temp Definition
°C
Rel Hum Definition
%
Wind Dir Definition
10's deg

Wind Spd Definition
km/h
Visibility Definition
km
Stn Press Definition
kPa
Hmdx Definition


Wind Chill Definition


Weather Definition


TIME
00:00 Legend Double Dagger -8.0 -10.0 86 33 26 24.1 100.76   -16 Snow
01:00 Legend Double Dagger -8.2 -10.1 86 35 16 24.1 100.75   -15 Snow
02:00 Legend Double Dagger -8.2 -10.3 85 35 16 24.1 100.68   -15 Snow
03:00 Legend Double Dagger -8.1 -10.3 84 35 25 16.1 100.62   -16 Snow
04:00 Legend Double Dagger -8.3 -10.2 86 36 17 8.1 100.58   -15 Snow
05:00 Legend Double Dagger -8.1 -9.9 87 35 14 4.8 100.53   -14 Snow
06:00 Legend Double Dagger -8.4 -9.8 90 32 12 4.8 100.51   -14 Snow
07:00 Legend Double Dagger -8.4 -9.8 90 34 16 1.2 100.47   -15 Snow
08:00 Legend Double Dagger -8.3 -9.8 89 1 18 4.8 100.45   -15 Snow
09:00 Legend Double Dagger -8.2 -9.9 88 1 24 3.2 100.43   -16 Snow
10:00 Legend Double Dagger -8.1 -9.8 88 1 23 1.6 100.44   -16 Snow
11:00 Legend Double Dagger -8.1 -9.9 87 1 28 9.7 100.46   -17 Snow,Blowing Snow
12:00 Legend Double Dagger -8.5 -10.4 86 2 24 16.1 100.49   -17 Snow,Blowing Snow
13:00 Legend Double Dagger -9.4 -11.3 86 36 23 24.1 100.50   -18 Blowing Snow
14:00 Legend Double Dagger -10.0 -11.6 88 36 23 24.1 100.57   -18 Blowing Snow
15:00 Legend Double Dagger -10.2 -11.8 88 35 19 24.1 100.62   -18 Cloudy
16:00 Legend Double Dagger -11.1 -12.9 87 34 21 24.1 100.64   -19 LegendNANA
17:00 Legend Double Dagger -9.5 -11.6 85 34 22 24.1 100.68   -18 LegendNANA
18:00 Legend Double Dagger -8.5 -11.0 82 34 32 19.3 100.70   -18 Snow,Blowing Snow
19:00 Legend Double Dagger -10.2 -12.6 83 34 30 24.1 100.72   -20 Snow,Blowing Snow
20:00 Legend Double Dagger -11.3 -13.3 85 34 30 24.1 100.76   -21 Snow,Blowing Snow
21:00 Legend Double Dagger -10.4 -12.3 86 34 31 24.1 100.76   -20 Snow,Blowing Snow
22:00 Legend Double Dagger -10.6 -12.8 84 35 30 24.1 100.80   -20 Snow,Blowing Snow
23:00 Legend Double Dagger -9.1 -11.5 83 34 36 24.1 100.82   -19 Snow,Blowing Snow

Notes on Data Quality.

Legend

  • E = Estimated
  • M = Missing
  • NA = Not Available
  • ‡ = Partner data that is not subject to review by the National Climate Archives
Date modified: